Regional Weather Roundup
Issued by NWS State College, PA

Home | Current Version | Previous Version | Text Only | Print | Product List | Glossary Off
Versions: 1 2 3 4 5 6 7 8 9 10 11 12 13 14 15 16 17 18 19 20 21 22 23 24 25 26 27 28 29 30 31 32 33 34 35 36 37 38 39 40 41 42 43 44 45 46 47 48 49 50

000
ASUS41 KCTP 291110
RWRCTP

REGIONAL WEATHER ROUNDUP
NATIONAL WEATHER SERVICE STATE COLLEGE PA
600 AM EST MON DEC 29 2014

Note: "fair" indicates few or no clouds below 12,000 feet with no
significant weather and/or obstructions to visibility.

* = STATION THAT DOES NOT REPORT PRECIPITATION /E.G. RAIN...SNOW...ETC/
    THUNDER OR FOG.

PAZ002>004-007>009-013>016-020>023-029>032-291200-
WESTERN PENNSYLVANIA

CITY           SKY/WX    TMP DP  RH WIND       PRES   REMARKS
ERIE           CLOUDY    33  21  61 NW7       30.20R
MEADVILLE      CLOUDY    29  23  78 CALM      30.16S
FRANKLIN*      PTCLDY    27  21  80 CALM      30.17S
NEW CASTLE       N/A     27  23  84 CALM      30.19F
BEAVER COUNTY  NOT AVBL
BUTLER*        CLEAR     28  25  86 CALM      30.18F
PITTSBURGH INT MOCLDY    31  24  75 VRB3      30.17S
PITTSBURGH     CLOUDY    30  22  72 NW6       30.16S
INDIANA*       CLEAR     28  28 100 CALM      30.19S
LATROBE        CLOUDY    32  32 100 CALM      30.19R
WASHINGTON CO* NOT AVBL
$$

PAZ004>006-010>012-017>019-024>028-033>037-041-042-045-046-049>053-291200-
CENTRAL PENNSYLVANIA

CITY           SKY/WX    TMP DP  RH WIND       PRES   REMARKS
BRADFORD       CLOUDY    26  19  74 W5        30.12R
DUBOIS         PTCLDY    26  22  84 NW3       30.13R
CLEARFIELD     PTCLDY    29  23  78 NW9       30.14R
JOHNSTOWN      CLOUDY    28  24  85 W6        30.10R
ALTOONA        CLOUDY    31  26  82 CALM      30.14R
STATE COLLEGE  CLEAR     30  25  80 NW3       30.15R
WILLIAMSPORT   PTCLDY    28  23  81 CALM      30.16R
SELINSGROVE    MOCLDY    30  26  85 CALM      30.17R
FT INDIANTOWN  CLOUDY    36  22  56 W5        30.17R
CAPITAL CITY   CLOUDY    34  25  69 SW5       30.19R
HARRISBURG     CLOUDY    34  25  69 CALM      30.18R
YORK           CLOUDY    36  26  67 CALM      30.18R
$$

PAZ038>040-043-044-047-048-054-055-060>062-067>071-291200-
EASTERN PENNSYLVANIA

CITY           SKY/WX    TMP DP  RH WIND       PRES   REMARKS
SCRANTON       MOCLDY    32  22  66 W10       30.13S
MOUNT POCONO   FAIR      29  20  69 NW7       30.07R
ALLENTOWN      PTCLDY    32  22  66 CALM      30.16R
QUAKERTOWN*    FAIR      30  27  86 CALM      30.15S
READING        MOCLDY    32  24  72 NW3       30.15S
LANCASTER      MOCLDY    34  27  75 W3        30.18R
COATESVILLE    CLOUDY    37  27  65 N3        30.16R
POTTSTOWN      MOCLDY    35  23  61 NW3       30.16F
BLUE BELL      MOCLDY    37  27  65 CALM      30.14S
DOYLESTOWN     MOCLDY    32  25  75 CALM      30.14S
WILLOW GROVE   NOT AVBL
NORTH PHILA    CLOUDY    38  23  55 N5        30.18R
PHILADELPHIA   CLOUDY    40  24  53 N8        30.17R
$$



USA.gov is the U.S. government's official web portal to all federal, state and local government web resources and services.